DELTA 1 DEB, 9975

Orbit data source: Space-Track

DELTA 1 DEB, 9975 is space debris in SSO originally from a launch on Tue, 06 Nov 1973 UTC launched from the Air Force Western Test Range (AFWTR). Debris objects in space refer to the collection of defunct objects orbiting the Earth. Examples of debris include non-operational satellites, rocket bodies, and fragments generated from explosions, collisions, or faulty payload assembly.

Loading next visibility...
Identifier
9975, 1973-086GE
Orbit
SSO
Country
Flag of USUS
Related business
Manufacturer
Unknown
Mission
Spacecraft
Bus & Motor
Unknown
Mass
Unknown
Launch date (UTC)
1973-11-06 (52 years ago)
Launch vehicle
Unknown
Launch site
Air Force Western Test Range (AFWTR)
Object type
Payload
Rocket body
Debris
Shape & HBR
Unknown shape, 0.1 m
Radar Cross Section
Small (<0.1 m²)

Expand to show TLE details & history
Last TLE update: 6 hours ago

TLE from 6 hours ago
0 DELTA 1 DEB
1  9975U 73086GE  25294.86814057  .00000637  00000-0  47961-2 0  9990
2  9975 102.4740 250.1779 0096895 295.3661  86.4264 12.44002793 63685
Epoch: 2025-10-21T20:50Z
TLE epoch observation values (Epoch: 2025-10-21T20:50:07.345Z)
Latitude
22.34809°
Longitude
-98.095°
Altitude
1,488.041 km
Speed
7.123 km/s
True Right ascension
16h 19m 56s
True Declination
22° 14' 19"
Sunlit
Object was in daylight at epoch
Visualization orbit readout
Latitude
Unknown
Longitude
Unknown
Altitude
Unknown
Speed
Unknown
Apparent Right ascension
Unknown
Apparent Declination
Unknown
Sunlit
N/A
Visualization observer readout
Local Sidereal Time
22:03:28
Azimuth
Unknown
Elevation
Unknown
Doppler factor
Unknown
Orbital elements
Apogee altitude
1,563.49 km
Perigee altitude
1,411.066 km
Semi-major axis
7,865.415 km
Eccentricity
0.00969
Inclination
102.474°
RAAN
250.1779°
Arg. of periapsis
295.3661°
True anomaly
87.53534°
Mean anomaly
86.4264°
Eccentric anomaly
86.9808°
Mean motion
3.11143 °/min
Orbital period
115.7 mins
BSTAR
0.0047961
Loading maneuver chart data...
Computing Atmospheric mass density...
Loading historical data...
Loading historical data...
Loading historical data...
Loading historical data...
Loading historical data...
Loading historical data...
Loading historical data...

Documentation

Showing up to 5 results
|